St. Francis, KS

3:51 PM CDT on September 20, 2017 (GMT -0500)
Cheyenne County Municipal

Weather History for KSYF - October, 2012

Change the Weather History Date:

Friday, October 5, 2012

  Actual Average Record
Temperature  
Mean Temperature 36 °F -  
Max Temperature 38 °F 72 °F 74 °F (2014)
Min Temperature 34 °F 42 °F 31 °F (2016)
Degree Days  
Heating Degree Days 28    
Moisture  
Dew Point 31 °F    
Average Humidity 80    
Maximum Humidity 93    
Minimum Humidity 60    
Precipitation  
Precipitation 0.00 in - - ()
Sea Level Pressure  
Sea Level Pressure 30.31 in    
Wind  
Wind Speed 8 mph ()    
Max Wind Speed 16 mph    
Max Gust Speed -    
Visibility 9.3 miles    
Events Rain , Snow    
Averages and records for this station are not official NWS values.
T = Trace of Precipitation, MM = Missing Value Source: Averaged Metar Reports

Daily Weather History Graph

Daily Weather History Graph

Search for Another Location

Airport or City:

Trip Planner

Search our weather history database for the weather conditions in past years. The results will help you decide how hot, cold, wet, or windy it might be!

Date:

Astronomy

Oct. 05, 2012 Rise Set
Actual Time 7:47 AM CDT 7:22 PM CDT
Civil Twilight 7:20 AM CDT 7:49 PM CDT
Nautical Twilight 6:49 AM CDT 8:20 PM CDT
Astronomical Twilight 6:18 AM CDT 8:51 PM CDT
Moon 10:48 PM CDT (10/5) 12:56 PM CDT (10/5)
Length of Visible Light 12h 28m
Length of Day
11h 34m
Waning Gibbous, 74% of the Moon is Illuminated
Oct 5
Waning Gibbous
Oct 8
Last Quarter
Oct 15
New
Oct 21
First Quarter
Oct 29
Full

Hourly Weather History & Observations

Time (CDT) Temp. Windchill Dew Point Humidity Pressure Visibility Wind Dir Wind Speed Gust Speed Precip Events Conditions
12:15 AM 38.8 °F 32.6 °F 26.2 °F 61% 30.29 in 10.0 mi East 9.2 mph - N/A   Clear
12:35 AM 37.9 °F 31.5 °F 26.6 °F 64% 30.28 in 10.0 mi East 9.2 mph - N/A   Clear
12:55 AM 39.2 °F 33.0 °F 26.4 °F 60% 30.29 in 10.0 mi ENE 9.2 mph - N/A   Clear
1:15 AM 38.3 °F 31.4 °F 26.6 °F 63% 30.30 in 10.0 mi ENE 10.4 mph - N/A   Clear
1:35 AM 36.9 °F 30.7 °F 27.1 °F 68% 30.30 in 10.0 mi ENE 8.1 mph - N/A   Clear
1:55 AM 34.3 °F 28.4 °F 26.6 °F 73% 30.30 in 10.0 mi NE 6.9 mph - N/A   Clear
2:15 AM 35.6 °F 29.2 °F 27.3 °F 72% 30.29 in 10.0 mi East 8.1 mph - N/A   Clear
2:35 AM 35.8 °F 30.1 °F 27.7 °F 72% 30.31 in 10.0 mi ENE 6.9 mph - N/A   Clear
2:55 AM 36.5 °F 31.0 °F 27.9 °F 71% 30.31 in 10.0 mi ENE 6.9 mph - N/A   Clear
3:15 AM 36.5 °F 29.7 °F 28.2 °F 72% 30.28 in 10.0 mi East 9.2 mph - N/A   Clear
3:35 AM 37.2 °F 30.0 °F 28.0 °F 69% 30.28 in 10.0 mi East 10.4 mph - N/A   Clear
3:55 AM 37.9 °F 30.9 °F 27.5 °F 66% 30.27 in 10.0 mi East 10.4 mph - N/A   Clear
4:15 AM 37.9 °F 28.9 °F 27.7 °F 67% 30.24 in 10.0 mi East 16.1 mph - N/A   Mostly Cloudy
4:35 AM 37.9 °F 29.6 °F 27.5 °F 66% 30.25 in 10.0 mi East 13.8 mph - N/A   Mostly Cloudy
4:55 AM 37.9 °F 29.6 °F 27.5 °F 66% 30.25 in 10.0 mi East 13.8 mph - N/A   Mostly Cloudy
5:15 AM 38.3 °F 30.9 °F 27.3 °F 65% 30.26 in 10.0 mi East 11.5 mph - N/A   Overcast
5:35 AM 38.5 °F 32.1 °F 27.3 °F 64% 30.28 in 10.0 mi ENE 9.2 mph - N/A   Overcast
5:55 AM 38.3 °F 31.9 °F 27.3 °F 65% 30.28 in 10.0 mi East 9.2 mph - N/A   Overcast
6:15 AM 38.3 °F 31.4 °F 27.3 °F 65% 30.26 in 10.0 mi East 10.4 mph - N/A   Overcast
6:35 AM 38.3 °F 31.4 °F 27.3 °F 65% 30.25 in 10.0 mi East 10.4 mph - N/A   Overcast
6:55 AM 37.9 °F 32.7 °F 27.5 °F 66% 30.26 in 10.0 mi East 6.9 mph - N/A   Overcast
7:15 AM 38.3 °F 34.8 °F 27.9 °F 66% 30.27 in 10.0 mi East 4.6 mph - N/A   Overcast
7:35 AM 38.3 °F 34.8 °F 27.7 °F 66% 30.27 in 10.0 mi East 4.6 mph - N/A   Overcast
7:55 AM 38.3 °F 35.9 °F 28.0 °F 67% 30.29 in 10.0 mi ENE 3.5 mph - N/A   Overcast
8:15 AM 37.9 °F - 29.3 °F 71% 30.31 in 5.0 mi Calm Calm - N/A Snow Light Snow
8:35 AM 37.6 °F 34.0 °F 30.6 °F 76% 30.31 in 7.0 mi East 4.6 mph - N/A Snow Light Snow
8:55 AM 36.5 °F 29.7 °F 31.6 °F 83% 30.29 in 5.0 mi ESE 9.2 mph - N/A Snow Light Snow
9:15 AM 34.7 °F 28.1 °F 32.0 °F 90% 30.30 in 1.5 mi ESE 8.1 mph - N/A Snow Light Snow
9:35 AM 34.3 °F 28.4 °F 32.0 °F 91% 30.30 in 2.5 mi ESE 6.9 mph - N/A Snow Light Snow
9:55 AM 34.7 °F 28.1 °F 32.4 °F 91% 30.29 in 2.5 mi ESE 8.1 mph - N/A Snow Light Snow
10:15 AM 35.2 °F 28.8 °F 33.1 °F 92% 30.31 in 4.0 mi ESE 8.1 mph - N/A Snow Light Snow
10:35 AM 36.1 °F 27.7 °F 34.2 °F 93% 30.29 in 10.0 mi ESE 12.7 mph - N/A Rain Light Rain
10:55 AM 36.5 °F 28.7 °F 34.2 °F 91% 30.31 in 10.0 mi ESE 11.5 mph - N/A   Overcast
11:15 AM 37.0 °F 29.8 °F 34.5 °F 91% 30.31 in 10.0 mi East 10.4 mph - N/A   Overcast
11:35 AM 37.0 °F 29.8 °F 34.2 °F 89% 30.31 in 10.0 mi East 10.4 mph - N/A   Overcast
11:55 AM 36.7 °F 29.9 °F 33.8 °F 89% 30.34 in 10.0 mi ENE 9.2 mph - N/A   Light Drizzle
12:15 PM 35.2 °F 29.5 °F 32.9 °F 91% 30.34 in 5.0 mi ENE 6.9 mph - N/A   Overcast
12:35 PM 35.6 °F 29.2 °F 33.4 °F 92% 30.33 in 10.0 mi ENE 8.1 mph - N/A Rain Light Rain
12:55 PM 36.0 °F 29.6 °F 33.8 °F 92% 30.33 in 10.0 mi East 8.1 mph - N/A Rain Light Rain
1:35 PM 36.5 °F 28.7 °F 33.8 °F 90% 30.32 in 10.0 mi East 11.5 mph - N/A   Overcast
1:55 PM 36.7 °F 29.9 °F 34.2 °F 91% 30.32 in 10.0 mi East 9.2 mph - N/A   Overcast
2:15 PM 36.5 °F 29.7 °F 34.2 °F 91% 30.31 in 10.0 mi East 9.2 mph - N/A   Overcast
2:35 PM 36.5 °F 30.3 °F 34.2 °F 91% 30.31 in 10.0 mi ENE 8.1 mph - N/A   Overcast
2:55 PM 36.5 °F 29.2 °F 34.2 °F 91% 30.31 in 10.0 mi ENE 10.4 mph - N/A   Overcast
3:15 PM 36.5 °F 29.7 °F 34.2 °F 91% 30.31 in 10.0 mi ENE 9.2 mph - N/A   Overcast
3:35 PM 36.9 °F 30.7 °F 34.2 °F 90% 30.31 in 10.0 mi East 8.1 mph - N/A   Overcast
3:55 PM 37.2 °F 31.2 °F 34.0 °F 88% 30.30 in 10.0 mi East 8.1 mph - N/A   Overcast
4:15 PM 37.2 °F 30.6 °F 34.2 °F 89% 30.30 in 10.0 mi East 9.2 mph - N/A   Overcast
4:35 PM 37.6 °F 32.3 °F 34.3 °F 88% 30.30 in 10.0 mi ENE 6.9 mph - N/A   Overcast
4:55 PM 37.6 °F 33.1 °F 34.2 °F 87% 30.30 in 10.0 mi ENE 5.8 mph - N/A   Overcast
5:15 PM 37.9 °F 33.5 °F 34.2 °F 86% 30.31 in 10.0 mi East 5.8 mph - N/A   Overcast
5:35 PM 38.1 °F 32.9 °F 34.0 °F 85% 30.31 in 10.0 mi East 6.9 mph - N/A   Overcast
5:55 PM 37.9 °F 34.4 °F 33.4 °F 84% 30.31 in 10.0 mi East 4.6 mph - N/A   Overcast
6:15 PM 37.9 °F 32.7 °F 33.8 °F 85% 30.32 in 10.0 mi East 6.9 mph - N/A   Overcast
6:35 PM 38.3 °F 34.8 °F 33.6 °F 83% 30.31 in 10.0 mi East 4.6 mph - N/A   Overcast
6:55 PM 38.3 °F - 33.3 °F 82% 30.32 in 10.0 mi Calm Calm - N/A   Overcast
7:15 PM 38.3 °F 35.9 °F 33.3 °F 82% 30.33 in 10.0 mi East 3.5 mph - N/A   Overcast
7:35 PM 38.3 °F - 33.1 °F 81% 30.33 in 10.0 mi Calm Calm - N/A   Overcast
7:55 PM 38.5 °F - 33.4 °F 82% 30.33 in 10.0 mi Calm Calm - N/A   Overcast
8:15 PM 38.5 °F - 33.6 °F 83% 30.34 in 10.0 mi Calm Calm - N/A   Overcast
8:35 PM 38.1 °F 32.9 °F 34.0 °F 85% 30.35 in 10.0 mi NNE 6.9 mph - N/A   Overcast
8:55 PM 37.4 °F 32.1 °F 34.3 °F 89% 30.35 in 10.0 mi North 6.9 mph - N/A   Overcast
9:15 PM 37.2 °F 31.9 °F 33.8 °F 87% 30.36 in 10.0 mi North 6.9 mph - N/A   Overcast
9:35 PM 37.0 °F 32.4 °F 33.6 °F 87% 30.36 in 10.0 mi NNE 5.8 mph - N/A   Overcast
9:55 PM 37.2 °F 33.6 °F 33.3 °F 86% 30.36 in 10.0 mi NNE 4.6 mph - N/A   Overcast
10:15 PM 37.2 °F 30.6 °F 33.3 °F 86% 30.35 in 10.0 mi NNE 9.2 mph - N/A   Overcast
10:35 PM 36.7 °F 32.9 °F 32.9 °F 86% 30.35 in 10.0 mi North 4.6 mph - N/A   Overcast
10:55 PM 36.7 °F 31.2 °F 32.9 °F 86% 30.34 in 10.0 mi North 6.9 mph - N/A   Overcast
11:15 PM 36.0 °F - 32.5 °F 87% 30.34 in 10.0 mi Calm Calm - N/A   Scattered Clouds
11:35 PM 35.8 °F - 32.5 °F 88% 30.34 in 10.0 mi Calm Calm - N/A   Mostly Cloudy
11:55 PM 36.5 °F - 33.8 °F 90% 30.34 in 10.0 mi Calm Calm - N/A   Overcast